Regional Weather Roundup
Issued by NWS

Home | Current Version | Previous Version | Text Only | Print | Product List | Glossary On
Versions: 1 2 3 4 5 6 7 8 9 10 11 12 13 14 15 16 17 18 19 20 21 22 23 24 25 26 27
000
ASUS45 KBOU 220607
RWRCO

WEATHER ROUNDUP FOR COLORADO
NATIONAL WEATHER SERVICE DENVER/BOULDER CO
1200 AM MDT TUE AUG 22 2017

NOTE: "FAIR" INDICATES FEW OR NO CLOUDS BELOW 12000 FEET WITH NO
SIGNIFICANT WEATHER AND/OR OBSTRUCTIONS TO VISIBILITY.

COZ001>005-013-030-031-220700-
...NORTHWEST COLORADO...

CITY           SKY/WX    TMP DP  RH WIND       PRES   REMARKS
CRAIG          FAIR      49  36  61 CALM      30.27R
HAYDEN         FAIR      61  33  35 E9        30.31R
MEEKER         FAIR      59  36  42 E6        30.29R
RABBIT EARS PA FAIR      50  37  62 S7        30.60R
STEAMBOAT SPGS FAIR      55  37  50 CALM      30.32S
WALDEN         FAIR      50  32  50 SE3       30.44R
$$

COZ006>008-011-220700-
...WEST CENTRAL VALLEYS...

CITY           SKY/WX    TMP DP  RH WIND       PRES   REMARKS
GRAND JUNCTION FAIR      76  45  33 SE14      30.16R
MONTROSE       FAIR      69  46  43 E10       30.28S
EAGLE          FAIR      60  39  45 SE5       30.35R
RIFLE          FAIR      67  41  38 CALM      30.23R
DELTA          FAIR      71  44  38 NE7       30.25R
NUCLA          FAIR      72  41  33 N3        30.31S
$$

COZ017>023-064>068-220700-
...SOUTHWEST COLORADO...

CITY           SKY/WX    TMP DP  RH WIND       PRES   REMARKS
DURANGO        CLOUDY    62  48  60 SW3       30.38R
CORTEZ         CLOUDY    68  50  52 NE12      30.29F
PAGOSA SPRINGS CLOUDY    61  43  51 CALM      30.44R
TELLURIDE      FAIR      60  39  45 E6        30.51S
WOLF CREEK PAS CLOUDY    41  37  87 N8        30.75S
$$

COZ009-010-012-014-032>034-037-058>063-220700-
...CENTRAL COLORADO...

CITY           SKY/WX    TMP DP  RH WIND       PRES   REMARKS
ASPEN          FAIR      63  40  42 SE10      30.41R
BUENA VISTA    FAIR      49  46  87 W5        30.49S
COPPER MTN     FAIR      50  36  57 S12       30.73S
BERTHOUD PASS  FAIR      39  34  81 SE16G24   30.76R
COTTONWOOD PAS FAIR      54  37  54 W7        30.60S
GUNNISON       FAIR      53  45  74 N7        30.46S
KREMMLING      FAIR      59  43  55 CALM      30.41S
LEADVILLE      FAIR      43  37  79 NE6       30.59S
SALIDA         FAIR      54  50  87 SW6       30.54R
SUNLIGHT       FAIR      52  32  46 S6        30.65R
WILKERSON PASS FAIR      46  34  61 E5        30.72R
$$

COZ069>075-220700-
...SAN LUIS VALLEY/SANGRE DE CRISTO MOUNTAINS...

CITY           SKY/WX    TMP DP  RH WIND       PRES   REMARKS
ALAMOSA        FAIR      54  48  80 W3        30.43S
DEL NORTE      FAIR      53  49  86 W6        30.47R
LA VETA PASS   NOT AVBL
SAGUACHE         N/A     55  50  82 NW12      30.46R
$$

COZ035-036-038>040-220700-
...NORTHERN COLORADO FRONT RANGE...

CITY           SKY/WX    TMP DP  RH WIND       PRES   REMARKS
DENVER INTL AP FAIR      63  49  60 E3        30.29R
DMNS CITY PARK   N/A     65  53  66 NE6       30.31R
AURORA         NOT AVBL
FRONT RANGE AP FAIR      63  52  67 SE5       30.30R
ERIE MUNI ARPT FAIR      61  51  70 CALM      30.34R
BOULDER MUN AP FAIR      68  46  45 CALM      30.30S
CENTENNIAL     FAIR      66  52  60 CALM      30.33R
BROOMFIELD     FAIR      70  48  46 CALM      30.33R
FORT COLLINS   FAIR      66  48  52 NE5       30.30R
LONGMONT       FAIR      63  52  68 CALM      30.31R
$$

COZ041-046-047-076>085-087-088-220700-
...PIKES PEAK/PALMER DIVIDE AND SOUTHERN FOOTHILLS...

CITY           SKY/WX    TMP DP  RH WIND       PRES   REMARKS
COLO. SPRINGS  MOCLDY    66  52  60 N6        30.35R
A. F. ACADEMY  NOT AVBL
SCHRIEVER AFB  FAIR      63  51  65 NW3       30.34S
CHEYENNE MTN   MOCLDY    65  49  56 W5        30.34S
ELLICOTT       FAIR     N/A N/A N/A E7        30.32S
FALCON         FAIR      59  50  70 W9        30.40R
FORT CARSON    FAIR      63  51  64 N5        30.31R
LIMON          FAIR      59  57  93 N7        30.29R
MONUMENT HILL  FAIR      55  48  76 CALM      30.41R
CANON CITY     CLEAR     66  54  63 W15       30.28S
WALSENBURG     MOCLDY    63  54  72 SW9       30.35S
TRINIDAD       LGT RAIN  64  52  64 W13       30.30S
$$

COZ042>045-048>051-090-091-220700-
...NORTHEAST COLORADO...

CITY           SKY/WX    TMP DP  RH WIND       PRES   REMARKS
GREELEY ARPT   FAIR      60  51  72 CALM      30.28R
AKRON          FAIR      63  58  83 NE9       30.25S
BURLINGTON     MOCLDY    69  65  86 NE14      30.20R
WRAY           NOT AVBL
YUMA           FAIR      61  50  67 N7        30.22R
STERLING       FAIR      59  52  77 N3        30.22R
HOLYOKE        FAIR      63  61  94 N7        30.21R
FORT MORGAN    FAIR      61  49  63 NE10      30.25R
$$

COZ086-089-092>099-220700-
...SOUTHEAST COLORADO...

CITY           SKY/WX    TMP DP  RH WIND       PRES   REMARKS
PUEBLO         FAIR      69  50  50 CALM      30.23S
LA JUNTA       FAIR      70  55  59 W8        30.18R
LAMAR          FAIR      66  62  87 CALM      30.10S
SPRINGFIELD      N/A     65  64  97 SW7       30.14S
$$




USA.gov is the U.S. government's official web portal to all federal, state and local government web resources and services.